Regional Weather Roundup
Issued by NWS

Home | Current Version | Previous Version | Graphics & Text | Print | Product List | Glossary On
Versions: 1 2 3 4 5 6 7 8 9 10 11 12 13 14 15 16 17 18 19 20 21 22 23 24 25 26 27 28 29 30 31 32 33 34 35 36 37 38 39 40 41 42 43 44 45 46 47 48 49 50
579
ASUS44 KMEG 302200
RWRTN
TENNESSEE HOURLY STATE WEATHER ROUNDUP
NATIONAL WEATHER SERVICE MEMPHIS TN
500 PM CDT SAT JUL 30 2016

TNZ002-004-019-021-049-052-054-088>092-302300-
WEST TENNESSEE

CITY           SKY/WX    TMP DP  RH WIND       PRES   REMARKS
MEMPHIS INTL   MOSUNNY   89  72  56 VRB5      29.97S HX  96
NWS MEMPHIS      N/A     90 N/A N/A MISG        N/A
JACKSON        SUNNY     86  74  67 SW5       29.97F HX  94
DYERSBURG      SUNNY    N/A N/A N/A MISG        N/A
UNION CITY     SUNNY     88  73  62 SW3       29.96S HX  96
PARIS          MOSUNNY   84  72  65 VRB3      29.98S
LEXINGTON      MOSUNNY   88  72  58 SW5       29.97F HX  94
$$

TNZ008-025-027-028-033-062-065-066-302300-
NORTH MIDDLE TENNESSEE

CITY           SKY/WX    TMP DP  RH WIND       PRES   REMARKS
NASHVILLE      PTSUNNY   88  70  55 SW3       29.98S HX  93
CLARKSVILLE    MOSUNNY   84  71  65 SW7       29.97S
COOKEVILLE     SUNNY     86  73  66 VRB3      30.00S HX  93
CROSSVILLE     PTSUNNY   81  68  64 W7        30.05S
$$

TNZ061-075-076-078-094-096-097-302300-
SOUTH MIDDLE TENNESSEE

CITY           SKY/WX    TMP DP  RH WIND       PRES   REMARKS
TULLAHOMA      SUNNY     84  70  61 W5        30.01F
WINCHESTER     SUNNY     84  72  65 W6        30.00F
MCMINNVILLE    SUNNY     86  73  66 W6        30.00F HX  93
COLUMBIA       MOSUNNY   90  73  58 W9        29.97S HX  98
SHELBYVILLE    SUNNY     90  73  58 W5        30.00S HX  98
$$

TNZ017-018-042-046-047-302300-
NORTHEAST TENNESSEE

CITY           SKY/WX    TMP DP  RH WIND       PRES   REMARKS
TRI CITIES     MOSUNNY   85  67  54 SW5       30.01S
$$

TNZ012-013-036-069-073-074-302300-
CENTRAL EAST TENNESSEE

CITY           SKY/WX    TMP DP  RH WIND       PRES   REMARKS
KNOXVILLE      MOSUNNY   88  68  51 SW12      29.97S HX  91
OAK RIDGE      PTSUNNY   92  69  47 VRB5      29.99S HX  97
GATLINBURG       N/A     91  66  43 W8        29.98R HX  94
$$

TNZ083-085-099-302300-
SOUTHEAST TENNESSEE

CITY           SKY/WX    TMP DP  RH WIND       PRES   REMARKS
CHATTANOOGA    CLOUDY    87  68  52 W8        29.97F HX  90
$$

SKY/WX REPORTED AS FAIR MEANS FEW OR NO CLOUDS BELOW
12 THOUSAND FEET.





USA.gov is the U.S. government's official web portal to all federal, state and local government web resources and services.